Regional Weather Roundup
Issued by NWS

Home | Current Version | Previous Version | Text Only | Print | Product List | Glossary On
Versions: 1 2 3 4 5 6 7 8 9 10 11 12 13 14 15 16 17 18 19 20 21 22 23 24 25 26 27
000
ASUS42 KFFC 241103
RWRGA
WEATHER ROUNDUP FOR GEORGIA
NATIONAL WEATHER SERVICE PEACHTREE CITY GA
700 AM EDT THU APR 24 2014

NOTE: "FAIR" INDICATES FEW OR NO CLOUDS BELOW 12,000 FEET WITH NO
SIGNIFICANT WEATHER AND/OR OBSTRUCTIONS TO VISIBILITY.

* = USE WITH CAUTION. THE STATIONS MARKED WITH AN ASTERISK MAY NOT
REPORT WEATHER SUCH AS PRECIPITATION, FOG, OR THUNDER AND ARE NOT
QUALITY CONTROLLED BY NWS.

THE REMARK "TC" DENOTES TEMPERATURE READING IN DEGREES CELSIUS.

GAZ001>058-241200-
NORTH GEORGIA

CITY           SKY/WX    TMP DP  RH WIND       PRES   REMARKS
ATLANTA        CLEAR     54  38  54 NE9       30.02R
ATHENS         CLEAR     51  34  52 NE6       30.02R
CHAMBLEE       CLEAR     44  39  82 CALM      30.02R
PEACHTREE CITY CLEAR     41  39  93 CALM      30.02R
ROME           CLEAR     41  39  93 NE5       30.02R
WEST ATLANTA   CLEAR     41  39  93 CALM      30.02R
GAINESVILLE    CLEAR     54  29  38 E10       30.05R
CARTERSVILLE   CLEAR     38  36  92 CALM      30.02S


CITY           SKY/WX    TMP DP  RH WIND       PRES   REMARKS
DALTON*        CLEAR     37  37 100 CALM      30.03R
LAWRENCEVILLE* CLEAR     54  32  43 NE7       30.01
MARIETTA       PTCLDY    44  41  89 CALM      30.02R
KENNESAW*      CLEAR     43  37  81 CALM      30.03
$$

GAZ059>098-102>109-241200-
CENTRAL GEORGIA

CITY           SKY/WX    TMP DP  RH WIND       PRES   REMARKS
AUGUSTA-BUSH   CLEAR     46  43  89 CALM      30.03R FOG
AUGUSTA-DANIEL CLEAR     59  33  37 E12       30.03R
COLUMBUS       CLEAR     51  45  79 CALM      29.99R
MACON          CLEAR     45  45 100 W5        30.00R
ROBINS AFB     CLEAR     47  45  92 N5        30.00R


CITY           SKY/WX    TMP DP  RH WIND       PRES   REMARKS
LAGRANGE*      CLEAR     44  43  97 CALM      30.00R
SYLVANIA*      CLEAR     57  50  75 NE6       30.01R
MILLEDGEVILLE* CLEAR     46  46 100 CALM      30.01R
$$

GAZ099>101-110>166-241200-
SOUTH GEORGIA

CITY           SKY/WX    TMP DP  RH WIND       PRES   REMARKS
SAVANNAH       CLEAR     56  52  86 CALM      29.98R
VALDOSTA       CLOUDY    63  60  90 CALM      29.97R FOG
ALMA           PTCLDY    57  55  93 CALM      29.97R FOG
ST SIMONS      CLEAR     62  60  93 CALM      29.96R FOG
FT STEWART     CLEAR     54  54 100 CALM      29.97R
ALBANY         CLOUDY    62  54  74 CALM      30.00R
HUNTER AFB     CLEAR     56  55  97 CALM      29.96R
MOODY AFB      MOCLDY    63  61  94 CALM      29.95S FOG
BRUNSWICK      MOCLDY    59  59 100 CALM      29.97R VSB 3/4


CITY           SKY/WX    TMP DP  RH WIND       PRES   REMARKS
BAINBRIDGE*    PTCLDY    66  64  94 NW3       29.97R FOG
MOULTRIE*      CLOUDY    64  64 100 CALM      29.98R FOG
VIDALIA*       CLEAR     57  46  67 CALM      29.99R
DOUGLAS*       MOCLDY    61  59  94 CALM      29.98R
$$



USA.gov is the U.S. government's official web portal to all federal, state and local government web resources and services.